Hourly Data Report for October 03, 2015

All times are specified in Local Standard Time (LST). Add 1 hour to adjust for Daylight Saving Time where and when it is observed.

RESOLUTE BAY A
NUNAVUT

74°43'01.000" N
94°58'10.000" W
67.70 m
2403498
71924
YRB

Download Data

Hourly Data (October 2015)
Hourly Data Report for October 3, 2015
Temp Definition
°C
Dew Point Temp Definition
°C
Rel Hum Definition
%
Wind Dir Definition
10's deg

Wind Spd Definition
km/h
Visibility Definition
km
Stn Press Definition
kPa
Hmdx Definition


Wind Chill Definition


Weather Definition


TIME
00:00 Legend Double Dagger -2.1 -3.8 88 25 42 16.1 100.60   -10 Snow
01:00 Legend Double Dagger -2.2 -4.7 83 26 37 11.3 100.62   -10 Snow
02:00 Legend Double Dagger -2.2 -4.2 86 25 37 16.1 100.62   -10 Snow
03:00 Legend Double Dagger -3.0 -4.6 89 24 29 16.1 100.66   -10 Snow
04:00 Legend Double Dagger -2.1 -3.8 88 25 40 16.1 100.63   -10 Snow
05:00 Legend Double Dagger -2.3 -4.2 87 23 35 16.1 100.64   -10 Snow
06:00 Legend Double Dagger -2.4 -3.8 90 23 39 16.1 100.61   -11 Snow
07:00 Legend Double Dagger -2.5 -4.1 89 22 43 16.1 100.58   -11 LegendNANA
08:00 Legend Double Dagger -2.6 -4.3 88 23 44 16.1 100.57   -11 LegendNANA
09:00 Legend Double Dagger -2.5 -3.9 90 22 40 16.1 100.57   -11 Cloudy
10:00 Legend Double Dagger -2.6 -4.0 90 23 44 16.1 100.53   -11 LegendNANA
11:00 Legend Double Dagger -2.6 -3.9 91 22 38 19.3 100.50   -11 LegendNANA
12:00 Legend Double Dagger -2.6 -3.9 91 22 39 19.3 100.47   -11 Cloudy
13:00 Legend Double Dagger -2.5 -3.8 91 22 35 12.9 100.47   -10 LegendNANA
14:00 Legend Double Dagger -2.4 -3.5 92 23 28 12.9 100.47   -9 LegendNANA
15:00 Legend Double Dagger -2.5 -4.1 89 24 32 12.9 100.47   -10 Cloudy
16:00 Legend Double Dagger -2.8 -4.2 90 23 29 12.9 100.47   -10 LegendNANA
17:00 Legend Double Dagger -3.5 -4.9 90 22 31 12.9 100.46   -11 LegendNANA
18:00 Legend Double Dagger -3.1 -5.0 87 24 35 12.9 100.47   -11 Cloudy
19:00 Legend Double Dagger -2.9 -4.6 88 22 36 12.9 100.44   -11 LegendNANA
20:00 Legend Double Dagger -3.0 -4.1 92 26 27 8.1 100.44   -10 Snow
21:00 Legend Double Dagger -3.3 -4.6 91 23 26 8.1 100.43   -10 Snow
22:00 Legend Double Dagger -2.8 -4.1 91 23 31 8.1 100.41   -10 Snow,Blowing Snow
23:00 Legend Double Dagger -3.0 -4.3 91 23 33 8.1 100.41   -11 Snow,Blowing Snow

Notes on Data Quality.

Legend

  • E = Estimated
  • M = Missing
  • NA = Not Available
  • ‡ = Partner data that is not subject to review by the National Climate Archives
Date modified: